Simultaneous Nadir Overpasses (SNOs) Predictions

Prediction of SNOs between AQUA and GOES-15 Satellite Orbit:

Table of predicted SNOs for the next 14.0 days since TLE Epoch: 11/4/2022
Index Date Time (AQUA) AQUA Lat,Lon GOES-15 Lat,Lon Distance(km) Time Diff (sec)
1 11/05/2022 21:58:19 0.76,-124.25 -0.13,-128.37 468.23 80
2 11/06/2022 10:19:23 0.28,-129.37 0.11,-128.44 104.91 80
3 11/08/2022 10:06:28 -0.33,-126.21 0.11,-128.42 251.36 80
4 11/08/2022 22:27:40 -0.76,-131.35 -0.09,-128.34 342.89 80
5 11/10/2022 22:14:44 -0.10,-128.20 -0.10,-128.32 13.20 80
6 11/12/2022 22:01:48 0.60,-125.05 -0.10,-128.29 368.45 80
7 11/13/2022 10:22:52 0.47,-130.16 0.08,-128.37 204.39 80
8 11/15/2022 10:09:55 -0.22,-127.01 0.08,-128.33 150.86 80
9 11/15/2022 22:31:07 -0.90,-132.15 -0.06,-128.24 443.97 80
10 11/17/2022 22:18:09 -0.22,-128.99 -0.06,-128.21 88.59 80
